Content
SEND FEEDBACK

Daily
Averages
Monthly
Summary
United States of America

WATERSMEET, MICHIGAN


Home > North America > United States > Michigan
Elevation: 1610 feet     Latitude: 46 17N     Longitude: 089 10W

WEATHER
 
SELECT A DAY
Number of Records: 238,918;   Date Range: 1/25/05 - 11/21/14
 
SHARE

PRINT THIS DATA

[ ← Previous Day ]
WEATHER ALMANAC - AUGUST 18, 2014
[ Next Day → ]
[ °C ]   °F
Weather ElementAverageHighLow
Temperature60.9 °F65.8 °F (8:55 pm)55.9 °F (7:15 am)
Dewpoint59.7 °F64.9 °F (11:35 pm)53.6 °F (7:15 am)
Humidity95.9 %100 % (1:15 am)87 % (10:35 pm)
Barometer29.84 in29.99 in (4:15 am)29.70 in (11:55 pm)
Wind Speed4 mph8.1 mph (7:35 pm)
Weather ElementAverage
Visibility5.6 mi
Wind DirectionSE (138.8 °)

Weather ElementTotal
Precipitation0.51 in
Heating Degree Days4.2 (Base 65)
Growing Degree Days10.9 (Base 50)
Averaged from 67 records on August 18, 2014
WEATHER CONDITIONS BREAKOUT
WIND DIRECTION BREAKOUT
WEATHER BY HOUR - AUGUST 18, 2014
[ °C ]   °F
Local TimeTemperatureDewpointHumidityBarometerVisibilityWind DirectionWind SpeedGust SpeedPrecipitationEventsConditions
12:15 AM56.8 °F53.6 °F89 %29.99 in10.0 miCalmOvercast
12:35 AM57.2 °F53.8 °F88 %29.99 in10.0 miSSE (150°)3.5 mphOvercast
12:55 AM57.7 °F53.8 °F87 %29.98 in10.0 miSSE (150°)4.6 mphOvercast
1:15 AM57.4 °F54.3 °F90 %29.97 in10.0 miSE (130°)3.5 mphRainLight Rain
1:35 AM57.2 °F54.9 °F92 %29.96 in7.0 miCalmRainRain
1:55 AM56.7 °F55.4 °F96 %29.96 in7.0 miSSE (150°)3.5 mph0.01 inRainLight Rain
2:15 AM56.7 °F55.6 °F96 %29.95 in7.0 miSE (130°)4.6 mph0.01 inRainLight Rain
2:35 AM56.7 °F55.6 °F96 %29.94 in10.0 miSE (140°)3.5 mph0.01 inOvercast
2:55 AM56.8 °F55.8 °F96 %29.94 in10.0 miSE (140°)3.5 mph0.01 inOvercast
3:15 AM56.8 °F55.8 °F96 %29.94 in10.0 miSSE (160°)3.5 mphRainLight Rain
3:35 AM56.8 °F55.6 °F96 %29.94 in10.0 miSSE (150°)5.8 mphDrizzle
3:55 AM56.8 °F55.6 °F96 %29.93 in10.0 miSE (140°)4.6 mphOvercast
4:15 AM56.8 °F55.4 °F95 %29.92 in10.0 miSE (140°)4.6 mphOvercast
4:35 AM56.7 °F55.2 °F95 %29.92 in10.0 miSE (140°)4.6 mphOvercast
5:15 AM56.5 °F54.9 °F94 %29.92 in10.0 miSE (140°)4.6 mphRainLight Rain
5:35 AM56.5 °F55.2 °F96 %29.92 in7.0 miSSE (160°)3.5 mphRainRain
5:55 AM56.3 °F55.2 °F96 %29.91 in2.5 miSE (140°)8.1 mph0.01 inRainHeavy Rain
6:15 AM55.9 °F55.4 °F98 %29.91 in7.0 miSE (140°)5.8 mph0.01 inOvercast
6:35 AM56.3 °F55.4 °F97 %29.91 in7.0 miSSE (150°)4.6 mph0.02 inOvercast
6:55 AM56.3 °F55.4 °F97 %29.90 in10.0 miSE (140°)4.6 mph0.03 inOvercast
7:15 AM56.3 °F55.4 °F97 %29.90 in10.0 miSSE (160°)4.6 mphOvercast
7:35 AM56.5 °F55.6 °F97 %29.89 in10.0 miCalm0.01 inOvercast
7:55 AM56.8 °F55.9 °F97 %29.89 in10.0 miCalm0.02 inOvercast
8:15 AM57.2 °F56.3 °F97 %29.88 in3.0 miSSE (160°)3.5 mph0.01 inOvercast
8:35 AM57.6 °F56.8 °F97 %29.87 in2.5 miSSE (160°)3.5 mph0.02 inOvercast
8:55 AM57.7 °F57.2 °F98 %29.87 in7.0 miSouth (180°)6.9 mph0.03 inOvercast
9:15 AM57.7 °F57.2 °F98 %29.87 in7.0 miSSE (150°)6.9 mph0.01 inRainLight Rain
9:35 AM58.3 °F57.6 °F97 %29.86 in7.0 miSSE (150°)4.6 mph0.02 inOvercast
9:55 AM59.0 °F58.1 °F97 %29.86 in7.0 miSSE (150°)5.8 mph0.03 inRainLight Rain
10:15 AM59.4 °F58.5 °F97 %29.86 in3.0 miSouth (170°)4.6 mph0.01 inOvercast
10:35 AM59.0 °F58.3 °F97 %29.86 in3.0 miSouth (170°)4.6 mph0.02 inOvercast
10:55 AM59.4 °F58.8 °F98 %29.85 in3.0 miSouth (170°)8.1 mph0.02 inOvercast
11:15 AM60.1 °F59.4 °F97 %29.85 in2.0 miSouth (170°)5.8 mph0.01 inOvercast
11:35 AM60.8 °F59.9 °F97 %29.84 in3.0 miSouth (170°)5.8 mph0.01 inOvercast
12:15 PM61.5 °F60.6 °F97 %29.84 in4.0 miSouth (180°)5.8 mphOvercast
12:35 PM61.7 °F60.8 °F97 %29.82 in5.0 miSouth (170°)5.8 mph0.01 inRainRain
12:55 PM61.5 °F60.6 °F97 %29.82 in2.5 miSouth (170°)5.8 mph0.01 inRainLight Rain
1:15 PM62.1 °F61.2 °F97 %29.82 in7.0 miSSW (210°)4.6 mph0.01 inOvercast
1:35 PM62.6 °F61.2 °F95 %29.81 in5.0 miSouth (170°)6.9 mph0.02 inOvercast
1:55 PM63.1 °F61.7 °F95 %29.82 in7.0 miSouth (170°)3.5 mph0.02 inOvercast
2:15 PM63.3 °F61.7 °F94 %29.81 in7.0 miSSW (200°)4.6 mph0.01 inOvercast
2:55 PM64.2 °F62.2 °F93 %29.79 in7.0 miSSE (160°)3.5 mph0.02 inOvercast
3:15 PM64.6 °F62.6 °F93 %29.79 in7.0 miSouth (170°)4.6 mphOvercast
3:35 PM65.3 °F63.0 °F92 %29.77 in7.0 miSouth (170°)4.6 mphOvercast
3:55 PM65.5 °F63.3 °F93 %29.77 in7.0 miSouth (170°)3.5 mph0.01 inOvercast
4:15 PM65.5 °F63.5 °F93 %29.77 in5.0 miCalmOvercast
4:55 PM65.3 °F63.7 °F94 %29.78 in3.0 miSouth (190°)4.6 mphOvercast
5:15 PM65.5 °F63.7 °F94 %29.77 in4.0 miCalmOvercast
5:35 PM65.8 °F63.9 °F93 %29.77 in5.0 miSouth (180°)3.5 mphOvercast
5:55 PM65.7 °F63.9 °F94 %29.77 in4.0 miSSE (160°)4.6 mphOvercast
6:15 PM65.7 °F64.4 °F96 %29.75 in4.0 miSSE (160°)3.5 mphOvercast
6:35 PM65.8 °F64.4 °F95 %29.75 in4.0 miSouth (170°)3.5 mph0.01 inOvercast
6:55 PM65.8 °F64.4 °F95 %29.75 in4.0 miSSE (150°)3.5 mph0.01 inOvercast
7:15 PM65.5 °F64.4 °F96 %29.76 in3.0 miSSE (160°)3.5 mphOvercast
7:35 PM65.3 °F64.4 °F97 %29.75 in2.0 miSouth (170°)5.8 mphOvercast
7:55 PM65.3 °F64.4 °F97 %29.74 in2.0 miSSE (150°)3.5 mphOvercast
8:15 PM64.9 °F64.4 °F98 %29.73 in2.0 miSSE (150°)3.5 mph0.01 inOvercast
8:35 PM64.9 °F64.6 °F99 %29.74 in3.0 miSE (130°)3.5 mph0.01 inOvercast
8:55 PM64.8 °F64.4 °F99 %29.74 in1.8 miSSE (150°)5.8 mph0.01 inOvercast
9:35 PM64.8 °F64.6 °F99 %29.73 in1.5 miCalmOvercast
9:55 PM64.8 °F64.6 °F99 %29.73 in1.8 miCalmOvercast
10:15 PM64.8 °F64.6 °F99 %29.73 in1.8 miSSE (160°)4.6 mphOvercast
10:35 PM64.8 °F64.8 °F100 %29.73 in1.0 miSouth (180°)4.6 mph0.01 inOvercast
10:55 PM64.8 °F64.8 °F100 %29.73 in0.8 miSouth (190°)4.6 mph0.01 inOvercast
11:15 PM64.8 °F64.8 °F100 %29.72 in0.5 miCalmFogFog
11:35 PM64.9 °F64.9 °F100 %29.71 in0.8 miSouth (190°)3.5 mphOvercast
11:55 PM64.9 °F64.9 °F100 %29.70 in1.0 miSouth (170°)3.5 mphRainLight Rain
Hourly data recorded from KLNL, located miles away from Watersmeet, Michigan







STORIES FROM OUR PARTNERS